Location: Byhalia Creek
(34.8270°N, 89.8040°W)
Time: 08:41:54
(UTC+00:00)

SL-4 R/B - Pass Details

Date: 22 April 2026
Orbit: 380 x 506 km, 51.6° (Epoch: 13 May)

Event Time Altitude Azimuth Distance (km) Brightness Sun altitude
Rises 02:43:32 0° 234° (SW) 2,521 5.6 -24.2°
Reaches altitude 10° 02:45:41 10° 238° (WSW) 1,663 4.7 -24.6°
Enters shadow 02:48:02 35° 253° (WSW) 806 3.1 -25.0°
